Lakewood, Ohio, United States (44107)
Lat: 41.48N, Lon: 81.8W
Wx Zone: OHZ011
Local Info
Past Weather Observations for Today

NOTE: This archive is for the closest National Weather Service station to Lakewood. Information may differ from the station used for current weather conditions.

Click here for Long-term Archive

Time Weather Temperature Dewpoint Humidity Pressure Winds Precip Visibility
20:51
Mostly Cloudy
46°F / 8°C 36°F / 2°C 66% 30.04 in
(1017 mb)
SSE 17.3 mph
(SSE 28 kph)
- 10SM
19:51
Overcast
46°F / 8°C 36°F / 2°C 66% 30.06 in
(1018 mb)
S 15 mph
(S 24 kph)
- 10SM
18:51
Overcast
46°F / 8°C 36°F / 2°C 66% 30.06 in
(1018 mb)
S 13.8 mph
(S 22 kph)
- 10SM
17:51
Overcast
45°F / 7°C 37°F / 3°C 76% 30.06 in
(1018 mb)
S 13.8 mph
(S 22 kph)
- 10SM
16:51
Overcast
45°F / 7°C 37°F / 3°C 76% 30.06 in
(1018 mb)
SSE 10.4 mph
(SSE 17 kph)
- 10SM
15:51
Overcast
45°F / 7°C 37°F / 3°C 76% 30.06 in
(1018 mb)
SSE 13.8 mph
(SSE 22 kph)
0.01 in
(0.25 mm)
10SM
14:51
Overcast
Light Rain
43°F / 6°C 37°F / 3°C 81% 30.09 in
(1019 mb)
S 12.7 mph
(S 20 kph)
0.00 in
(0.00 mm)
7SM
13:51
Overcast
43°F / 6°C 36°F / 2°C 76% 30.09 in
(1019 mb)
SSE 13.8 mph
(SSE 22 kph)
- 10SM
12:51
Overcast
41°F / 5°C 36°F / 2°C 81% 30.12 in
(1020 mb)
SSE 16.1 mph
(SSE 26 kph)
- 10SM
11:51
Overcast
37°F / 3°C 34°F / 1°C 87% 30.15 in
(1021 mb)
SSE 13.8 mph
(SSE 22 kph)
0.00 in
(0.00 mm)
8SM
10:51
Overcast
Light Rain
36°F / 2°C 34°F / 1°C 93% 30.18 in
(1022 mb)
S 16.1 mph
(S 26 kph)
0.00 in
(0.00 mm)
8SM
10:04
Overcast
Light Rain
36°F / 2°C 32°F / 0°C 87% 30.18 in
(1022 mb)
S 15 mph
(S 24 kph)
0.00 in
(0.00 mm)
9SM
09:51
Overcast
Light Rain
34°F / 1°C 30°F / -1°C 87% 30.21 in
(1023 mb)
S 13.8 mph
(S 22 kph)
- 6SM
09:01
Overcast
Light Rain
34°F / 1°C 28°F / -2°C 81% 30.21 in
(1023 mb)
S 13.8 mph
(S 22 kph)
0.02 in
(0.51 mm)
4SM
08:51
Overcast
Light Rain
34°F / 1°C 28°F / -2°C 81% 30.21 in
(1023 mb)
S 13.8 mph
(S 22 kph)
0.04 in
(1.02 mm)
2SM
07:51
Overcast
Light Rain
34°F / 1°C 21°F / -6°C 60% 30.24 in
(1024 mb)
S 13.8 mph
(S 22 kph)
0.02 in
(0.51 mm)
7SM
07:32
Overcast
Light Rain
32°F / 0°C 19°F / -7°C 60% 30.24 in
(1024 mb)
S 15 mph
(S 24 kph)
0.01 in
(0.25 mm)
10SM
06:51
Overcast
30°F / -1°C 12°F / -11°C 47% 30.24 in
(1024 mb)
S 12.7 mph
(S 20 kph)
- 10SM
05:51
Overcast
28°F / -2°C 10°F / -12°C 47% 30.27 in
(1025 mb)
S 15 mph
(S 24 kph)
- 10SM
04:51
Partly Cloudy
27°F / -3°C 10°F / -12°C 50% 30.3 in
(1026 mb)
S 9.2 mph
(S 15 kph)
- 10SM
03:51
Clear
25°F / -4°C 9°F / -13°C 50% 30.33 in
(1027 mb)
S 15 mph
(S 24 kph)
- 10SM
02:51
Clear
25°F / -4°C 9°F / -13°C 50% 30.36 in
(1028 mb)
S 10.4 mph
(S 17 kph)
- 10SM
01:51
Clear
25°F / -4°C 9°F / -13°C 50% 30.36 in
(1028 mb)
S 12.7 mph
(S 20 kph)
- 10SM
00:51
Clear
18°F / -8°C 7°F / -14°C 62% 30.39 in
(1029 mb)
SSE 8.1 mph
(SSE 13 kph)
- 10SM
Time Weather Temperature Dewpoint Humidity Pressure Winds Precip Visibility


Weather for websites

WeatherForYou.com, LLC is not responsible for any damages or problems caused by this service. Current weather conditions are obtained from the closest station including government and personal stations which may have varying degrees of accuracy. Weather forecasts are derived from the NOAA NDFD. Like all things, this site belongs to Jesus Christ... He just trusts me to maintain it. If you have any questions or comments email webmaster@weatherforyou.com

Copyright © 2014, WeatherForYou.com LLC. All rights reserved.